Погода в Царникаве

Латвия     57°07′38″N   24°16′49″E
темп.,
°C
ветер,
м/с
пор.,
м/с
влажн.,
%
обл.,
%
осадки,
мм/ч
давл.,
гПа
погр.,
м
5 марта, пт
пт523:00−1сз7118046 0.1 1011350
02:00−2сз9127873 0.1 1012526
05:00−3ссз9126986 0.2 1013656
08:00−3ссз7106343 0.2 1014383
11:00−2ссз35660 0.0 1016330
14:00−1зюз467633 0.1 1016318
17:00−2с678699 0.2 1017268
20:00−3с7106569 0.3 1019466
6 марта, сб
сб623:00−4с57700 0.0 1021291
02:00−3ссз34740 0.0 1023230
05:00−3сз56740 0.0 1023269
08:00−2з57730 0.0 1023299
11:00−1юз7106928 0.0 1021451
14:00+1юз9146849 0.0 1017320
17:00+1юз101766100 0.0 1014425
20:000юз111872100 0.0 1010696
7 марта, вс
вс723:000зюз101784100 0.0 1006506
02:00−1ссз131689100 1.8 1005781
05:00−2сз121558100 0.1 1006930
08:00−2зсз11146873 0.4 1006965
11:00−1зсз12166267 0.5 10051101
14:00−1з12166380 1.0 10031221
17:00−1сз17206795 0.6 10021193
20:00−3сз14178098 0.7 10051169
8 марта, пн
пн823:00−4ссз101278100 0.1 1007949
02:00−4ссз7977100 0.3 1009684
05:00−5с467597 0.1 1010395
08:00−6с898399 0.2 1012789
11:00−6с7872100 0.0 1014988
14:00−6с91074100 0.1 1017966
17:00−5с896332 0.0 1018923
20:00−5ссв796516 0.0 1021572
9 марта, вт
вт923:00−6ссв47660 0.0 1023444
02:00−6ссв23680 0.0 1024208
05:00−6сз016950 0.0 1025151
08:00−4з336856 0.0 1026177
11:00−4з55640 0.0 1026496
14:00−3зюз57600 0.0 1026472
17:00−2зюз56610 0.0 1025205
20:00−2зюз79630 0.0 1026266